Regional Weather Roundup
Issued by NWS Lake Charles, LA

Home | Current Version | Previous Version | Text Only | Print | Product List | Glossary On
Versions: 1 2 3 4 5 6 7 8 9 10 11 12 13 14 15 16 17 18 19 20 21 22 23 24 25 26 27 28 29 30 31 32 33 34 35 36 37 38 39 40 41 42 43 44 45 46 47 48 49 50
000
ASUS44 KLCH 201410
RWRLCH
RWRLCH
REGIONAL WEATHER ROUNDUP
NATIONAL WEATHER SERVICE LAKE CHARLES LA
900 AM CDT WED AUG 20 2014

Note: "fair" indicates few or no clouds below 12,000 feet with no
significant weather and/or obstructions to visibility.


ACROSS SOUTHEAST TEXAS

CITY           SKY/WX    TMP DP  RH WIND       PRES   REMARKS
BEAUMONT       SUNNY     86  77  74 S7        30.00R
BEAUMONT CITY    N/A     83  78  85 S5        30.01R
ORANGE           N/A     83  83 100 S3        30.03R FOG     HX 102
JASPER         SUNNY     76  73  92 CALM      30.04S
$$

ACROSS CENTRAL LOUISIANA

CITY           SKY/WX    TMP DP  RH WIND       PRES   REMARKS
LEESVILLE      SUNNY     80  74  81 S5        30.03S
FULLERTON        N/A     82  74  76 VRB3      30.02R
ALEXANDRIA INT PTSUNNY   78  73  84 SE8       30.03R
ESLER FIELD    PTSUNNY   80  74  81 S3        30.05R
DERIDDER         N/A     80  75  84 CALM      30.05S HAZE
OAKDALE        SUNNY     78  75  88 CALM      30.04S
OPELOUSAS        N/A    N/A N/A N/A CALM      30.04S
$$

ACROSS SOUTHWEST AND SOUTH CENTRAL LOUISIANA

CITY           SKY/WX    TMP DP  RH WIND       PRES   REMARKS
SULPHUR        SUNNY     84  80  87 E5        30.03R
LAKE CHARLES   SUNNY     81  77  88 E3        30.02R
CHENNAULT INT  SUNNY     81  75  83 CALM      30.03R
CAMERON PHI    MOSUNNY   88  77  70 S12       30.02R HX 100
DEQUINCY         N/A     79  76  90 CALM      30.03R
JENNINGS         N/A     79  77  92 CALM      30.03R
LAFAYETTE      SUNNY     80  77  90 CALM      30.04R
NEW IBERIA     SUNNY     84  77  79 NE3       30.05R
ABBEVILLE        N/A     83  79  88 CALM      30.04R
PATTERSON      SUNNY    N/A N/A N/A MISG        N/A
SALT POINT       N/A     90  79  70 SW5       30.03R HX 106
$$

SELECTED SITES ACROSS THE REGION

CITY           SKY/WX    TMP DP  RH WIND       PRES   REMARKS
HOUSTON BUSH   MOSUNNY   84  78  82 SE5       29.99R
HOUSTON HOBBY  MOSUNNY   85  77  77 SE7       29.98R
GALVESTON      SUNNY     88  78  72 S14       29.99R HX 101
COLLEGE STAT   PTSUNNY   80  76  87 S6        29.99R
CONROE         SUNNY     79  76  90 SE5       30.01R
HUNTSVILLE     SUNNY     81  75  82 VRB5      30.01R
LUFKIN         SUNNY     80  75  84 SE5       30.02R
SHREVEPORT     MOSUNNY   80  73  79 S8        30.02R
MONROE         MOSUNNY   77  71  82 CALM      30.06R
NATCHEZ MS     PTSUNNY   81  73  78 S5        30.08R
BATON ROUGE    SUNNY     82  74  76 NE5       30.06R
N.O. INTL ARPT MOSUNNY   86  76  71 CALM      30.06R
SLIDELL        MOSUNNY   84  76  76 CALM      30.07R
$$

MARINE REPORTS

STATION/POSITION TIME  TEMP    WIND        PRES    VSBY  WAVE
                       AIR SEA DIR/SP/G                  HT/PER
                 (UTC) (F)     (DEG/KT/KT) (MB)    (MI)  (FT/S)
BUOY 30 S HIGH I NOT AVBL
SEA RIM ST PARK  1400   86     180/  9/ 11 1016.4R
PORT ARTHUR      1400      87  170/  5/  8 1016.1S
SABINE PASS N    1400   87 86  170/  9/ 13 1016.0S
TEXAS POINT      1400   86 86  170/ 10/ 12 1016.1S
CALCASIEU PASS   1400   86 86  180/ 10/ 13 1017.4R
LK CHARLES BEACH 1400   81 84              1017.3S
MARSH ISLAND     1300   88     200/  6/  9   N/A
FRESH WATER LOCK 1400   86 87  180/ 10/ 12 1016.7S
AMERADA PASS     1400   86 86  200/  2/  5 1017.2S
$$


USA.gov is the U.S. government's official web portal to all federal, state and local government web resources and services.